{"data":{"norad_id":60452,"epoch":"2026-05-25T03:11:23.112096Z","epoch_age_seconds":63842,"freshness":"FRESH","line1":"1 60452U 24146A   26145.13290639  .00002447  00000+0  13935-3 0  9995","line2":"2 60452  44.9997 154.1813 0007582  20.8674 339.2512 15.15836063 98520","mean_motion":15.15836063,"eccentricity":0.0007582,"inclination_deg":44.9997,"raan_deg":154.1813,"arg_perigee_deg":20.8674,"mean_anomaly_deg":339.2512,"bstar":0.00013935,"rev_number":9852,"period_min":94.997080169084,"perigee_km":513.21252518091,"apogee_km":523.670496835,"semimajor_km":6896.578511008,"source":"CELESTRAK","updated_at":"2026-05-25T13:38:12.836962Z"}}